Location: Bühlhof
(48.7849°N, 8.6361°E)
Time: 07:26:20
(UTC+00:00)

Cosmos 1633 Rocket - Pass Details

Date: 19 January 2026
Orbit: 600 x 616 km, 82.5° (Epoch: 18 February)

Event Time Altitude Azimuth Distance (km) Brightness Sun altitude
Rises 16:38:28 0° 347° (NNW) 2,862 6.4 -6.1°
Reaches altitude 10° 16:40:42 10° 343° (NNW) 1,954 5.6 -6.4°
Maximum altitude 16:44:57 59° 265° (W) 699 3.7 -7.1°
Drops below altitude 10° 16:49:10 10° 186° (S) 1,941 6.0 -7.7°
Sets 16:51:23 0° 182° (S) 2,841 6.8 -8.0°
